,,Stat6,,Stat2,,Stat8,,Stat9,,Stat10,,Wind1,,Wind1,
time,status,PA1M_AVG,status,PR1M_SUM,status,RH1M_AVG,status,SR1M_AVG,status,TA1M_AVG,status,W1dAve1m,status,W1sAve1m,
2007-05-14, 00:00:00,VALID,916.76,VALID,0,VALID,100,VALID,-0.0339617,VALID,21.9505,VALID,49,VALID,0.606585,
2007-05-14, 00:01:00,VALID,916.75,VALID,0,VALID,100,VALID,-0.0509425,VALID,21.9115,VALID,45,VALID,0.531994,
2007-05-14, 00:02:00,VALID,916.755,VALID,0,VALID,100,VALID,-0.0679233,VALID,21.8731,VALID,45,VALID,0.552144,
2007-05-14, 00:03:00,VALID,916.724,VALID,0,VALID,100,VALID,0,VALID,21.8566,VALID,56,VALID,0.616425,
2007-05-14, 00:04:00,VALID,916.703,VALID,0,VALID,100,VALID,-0.0339617,VALID,21.8203,VALID,65,VALID,0.57919,
2007-05-14, 00:05:00,VALID,916.695,VALID,0,VALID,100,VALID,-0.0509425,VALID,21.8076,VALID,66,VALID,0.555027,
2007-05-14, 00:06:00,VALID,916.685,VALID,0,VALID,100,VALID,-0.0849042,VALID,21.7792,VALID,73,VALID,0.707465,
2007-05-14, 00:07:00,VALID,916.669,VALID,0,VALID,100,VALID,-0.0849042,VALID,21.7435,VALID,74,VALID,0.681641,
2007-05-14, 00:08:00,VALID,916.652,VALID,0,VALID,100,VALID,-0.0509425,VALID,21.6937,VALID,80,VALID,0.616443,
2007-05-14, 00:09:00,VALID,916.651,VALID,0,VALID,100,VALID,-0.0339617,VALID,21.6845,VALID,83,VALID,0.643111,
2007-05-14, 00:10:00,VALID,916.63,VALID,0,VALID,100,VALID,-0.0679233,VALID,21.6585,VALID,88,VALID,0.491443,
2007-05-14, 00:11:00,VALID,916.634,VALID,0,VALID,100,VALID,-0.0339617,VALID,21.6423,VALID,87,VALID,0.462054,
2007-05-14, 00:12:00,VALID,916.63,VALID,0,VALID,100,VALID,-0.0339617,VALID,21.6299,VALID,85,VALID,0.595508,
2007-05-14, 00:13:00,VALID,916.642,VALID,0,VALID,100,VALID,-0.0679233,VALID,21.6201,VALID,88,VALID,0.453472,
2007-05-14, 00:14:00,VALID,916.657,VALID,0,VALID,100,VALID,-0.0169808,VALID,21.602,VALID,90,VALID,0.12358,
2007-05-14, 00:15:00,VALID,916.648,VALID,0,VALID,100,VALID,0.0509425,VALID,21.6025,VALID,90,VALID,0.26944,
2007-05-14, 00:16:00,VALID,916.656,VALID,0,VALID,100,VALID,0.0509425,VALID,21.5695,VALID,94,VALID,0.508371,
2007-05-14, 00:17:00,VALID,916.658,VALID,0,VALID,100,VALID,0.0509425,VALID,21.5468,VALID,94,VALID,0.382133,
2007-05-14, 00:18:00,VALID,916.663,VALID,0,VALID,100,VALID,0.0509425,VALID,21.553,VALID,94,VALID,0.248757,
2007-05-14, 00:19:00,VALID,916.668,VALID,0,VALID,100,VALID,0.0339617,VALID,21.5465,VALID,102,VALID,0.561257,
2007-05-14, 00:20:00,VALID,916.674,VALID,0,VALID,100,VALID,0.0339617,VALID,21.543,VALID,107,VALID,0.427557,
2007-05-14, 00:21:00,VALID,916.671,VALID,0,VALID,100,VALID,0.0169808,VALID,21.54,VALID,113,VALID,0.622713,
2007-05-14, 00:22:00,VALID,916.657,VALID,0,VALID,100,VALID,-0.0339617,VALID,21.5517,VALID,118,VALID,0.633523,
2007-05-14, 00:23:00,VALID,916.652,VALID,0,VALID,100,VALID,-0.0169808,VALID,21.5381,VALID,119,VALID,0.721354,
2007-05-14, 00:24:00,VALID,916.642,VALID,0,VALID,100,VALID,-0.0509425,VALID,21.5381,VALID,134,VALID,0.635538,
2007-05-14, 00:25:00,VALID,916.622,VALID,0,VALID,100,VALID,-0.0679233,VALID,21.5547,VALID,156,VALID,0.818266,
2007-05-14, 00:26:00,VALID,916.602,VALID,0,VALID,100,VALID,-0.0339617,VALID,21.5411,VALID,151,VALID,1.0503,
2007-05-14, 00:27:00,VALID,916.586,VALID,0,VALID,100,VALID,-0.0339617,VALID,21.5514,VALID,144,VALID,0.86059,
2007-05-14, 00:28:00,VALID,916.584,VALID,0,VALID,100,VALID,-0.0509425,VALID,21.5511,VALID,144,VALID,0.944949,
2007-05-14, 00:29:00,VALID,916.58,VALID,0,VALID,100,VALID,-0.0169808,VALID,21.5576,VALID,152,VALID,1.13423,
2007-05-14, 00:30:00,VALID,916.588,VALID,0,VALID,100,VALID,-0.0509425,VALID,21.5576,VALID,153,VALID,1.05167,
2007-05-14, 00:31:00,VALID,916.564,VALID,0,VALID,100,VALID,-0.0339617,VALID,21.5576,VALID,150,VALID,1.02834,
2007-05-14, 00:32:00,VALID,916.528,VALID,0,VALID,100,VALID,-0.0339617,VALID,21.5509,VALID,146,VALID,0.990327,
2007-05-14, 00:33:00,VALID,916.501,VALID,0,VALID,100,VALID,-0.0679233,VALID,21.5452,VALID,128,VALID,1.14329,
2007-05-14, 00:34:00,VALID,916.477,VALID,0,VALID,100,VALID,-0.0339617,VALID,21.5249,VALID,131,VALID,0.888494,
2007-05-14, 00:35:00,VALID,916.459,VALID,0,VALID,100,VALID,-0.0509425,VALID,21.5184,VALID,147,VALID,0.840843,
2007-05-14, 00:36:00,VALID,916.428,VALID,0,VALID,100,VALID,-0.0169808,VALID,21.5219,VALID,157,VALID,0.745916,
2007-05-14, 00:37:00,VALID,916.429,VALID,0,VALID,100,VALID,-0.0509425,VALID,21.4957,VALID,144,VALID,0.82758,
2007-05-14, 00:38:00,VALID,916.412,VALID,0,VALID,100,VALID,-0.0679233,VALID,21.4959,VALID,132,VALID,0.547041,
2007-05-14, 00:39:00,VALID,916.391,VALID,0,VALID,100,VALID,-0.0339617,VALID,21.4859,VALID,148,VALID,0.660714,
2007-05-14, 00:40:00,VALID,916.378,VALID,0,VALID,100,VALID,-0.0509425,VALID,21.4962,VALID,135,VALID,0.844295,
2007-05-14, 00:41:00,VALID,916.371,VALID,0,VALID,100,VALID,-0.0509425,VALID,21.4635,VALID,130,VALID,0.670516,
2007-05-14, 00:42:00,VALID,916.374,VALID,0,VALID,100,VALID,-0.0169808,VALID,21.4732,VALID,142,VALID,0.845526,
2007-05-14, 00:43:00,VALID,916.354,VALID,0,VALID,100,VALID,-0.0339617,VALID,21.4502,VALID,131,VALID,0.692014,
2007-05-14, 00:44:00,VALID,916.327,VALID,0,VALID,100,VALID,0,VALID,21.4529,VALID,129,VALID,0.68006,
2007-05-14, 00:45:00,VALID,916.32,VALID,0,VALID,100,VALID,-0.0169808,VALID,21.4432,VALID,127,VALID,0.588542,
2007-05-14, 00:46:00,VALID,916.292,VALID,0,VALID,100,VALID,0.0339617,VALID,21.4267,VALID,126,VALID,0.513139,
2007-05-14, 00:47:00,VALID,916.29,VALID,0,VALID,100,VALID,0.0339617,VALID,21.4234,VALID,127,VALID,0.496366,
2007-05-14, 00:48:00,VALID,916.292,VALID,0,VALID,100,VALID,0.0339617,VALID,21.4099,VALID,126,VALID,0.367898,
2007-05-14, 00:49:00,VALID,916.266,VALID,0,VALID,100,VALID,0.0339617,VALID,21.4205,VALID,126,VALID,0.394531,
2007-05-14, 00:50:00,VALID,916.255,VALID,0,VALID,100,VALID,0.0169808,VALID,21.4102,VALID,128,VALID,0.87843,
2007-05-14, 00:51:00,VALID,916.247,VALID,0,VALID,100,VALID,0.0339617,VALID,21.4037,VALID,125,VALID,0.498476,
2007-05-14, 00:52:00,VALID,916.233,VALID,0,VALID,100,VALID,0.0509425,VALID,21.404,VALID,130,VALID,0.635901,
2007-05-14, 00:53:00,VALID,916.218,VALID,0,VALID,100,VALID,0.0339617,VALID,21.3942,VALID,140,VALID,0.317769,
2007-05-14, 00:54:00,VALID,916.184,VALID,0,VALID,100,VALID,0,VALID,21.4012,VALID,122,VALID,0.543423,
2007-05-14, 00:55:00,VALID,916.147,VALID,0,VALID,100,VALID,0.0169808,VALID,21.3912,VALID,114,VALID,0.439904,
2007-05-14, 00:56:00,VALID,916.122,VALID,0,VALID,100,VALID,0.0339617,VALID,21.3945,VALID,131,VALID,0.826265,
2007-05-14, 00:57:00,VALID,916.098,VALID,0,VALID,100,VALID,0,VALID,21.3712,VALID,133,VALID,0.733648,
2007-05-14, 00:58:00,VALID,916.085,VALID,0,VALID,100,VALID,0,VALID,21.3777,VALID,134,VALID,0.740663,
2007-05-14, 00:59:00,VALID,916.042,VALID,0,VALID,100,VALID,0.0169808,VALID,21.3847,VALID,131,VALID,0.560369,
2007-05-14, 01:00:00,VALID,916.02,VALID,0,VALID,100,VALID,0.0169808,VALID,21.3877,VALID,127,VALID,0.585574,
2007-05-14, 01:01:00,VALID,915.986,VALID,0,VALID,100,VALID,0.0509425,VALID,21.4042,VALID,121,VALID,0.37609,
2007-05-14, 01:02:00,VALID,915.974,VALID,0,VALID,100,VALID,0.0339617,VALID,21.4007,VALID,136,VALID,0.55814,
2007-05-14, 01:03:00,VALID,915.955,VALID,0,VALID,100,VALID,0.0339617,VALID,21.4037,VALID,138,VALID,0.876999,
2007-05-14, 01:04:00,VALID,915.921,VALID,0,VALID,100,VALID,0.0339617,VALID,21.4134,VALID,137,VALID,0.763951,
2007-05-14, 01:05:00,VALID,915.898,VALID,0,VALID,100,VALID,0.0509425,VALID,21.4102,VALID,130,VALID,0.853237,
2007-05-14, 01:06:00,VALID,915.87,VALID,0,VALID,100,VALID,0.0339617,VALID,21.4167,VALID,139,VALID,0.799414,
2007-05-14, 01:07:00,VALID,915.844,VALID,0,VALID,100,VALID,0,VALID,21.4264,VALID,132,VALID,0.930596,
2007-05-14, 01:08:00,VALID,915.832,VALID,0,VALID,100,VALID,0.0849042,VALID,21.4259,VALID,130,VALID,0.828887,
2007-05-14, 01:09:00,VALID,915.817,VALID,0,VALID,100,VALID,0.0509425,VALID,21.4294,VALID,136,VALID,0.728609,
2007-05-14, 01:10:00,VALID,915.791,VALID,0,VALID,100,VALID,0,VALID,21.4297,VALID,133,VALID,0.817023,
2007-05-14, 01:11:00,VALID,915.771,VALID,0,VALID,100,VALID,0,VALID,21.4234,VALID,138,VALID,0.666667,
2007-05-14, 01:12:00,VALID,915.735,VALID,0,VALID,100,VALID,0,VALID,21.4202,VALID,141,VALID,0.866071,
2007-05-14, 01:13:00,VALID,915.699,VALID,0,VALID,100,VALID,0,VALID,21.411,VALID,137,VALID,0.99628,
2007-05-14, 01:14:00,VALID,915.677,VALID,0,VALID,100,VALID,-0.0509425,VALID,21.4053,VALID,135,VALID,0.941778,
2007-05-14, 01:15:00,VALID,915.633,VALID,0,VALID,100,VALID,-0.0849042,VALID,21.4161,VALID,135,VALID,0.963542,
2007-05-14, 01:16:00,VALID,915.616,VALID,0,VALID,100,VALID,-0.101885,VALID,21.3988,VALID,155,VALID,0.830305,
2007-05-14, 01:17:00,VALID,915.599,VALID,0,VALID,100,VALID,-0.0849042,VALID,21.4259,VALID,133,VALID,0.530869,
2007-05-14, 01:18:00,VALID,915.566,VALID,0,VALID,100,VALID,-0.0679233,VALID,21.4183,VALID,141,VALID,0.662016,
2007-05-14, 01:19:00,VALID,915.533,VALID,0,VALID,100,VALID,-0.0509425,VALID,21.405,VALID,142,VALID,0.65293,
2007-05-14, 01:20:00,VALID,915.501,VALID,0,VALID,100,VALID,-0.0339617,VALID,21.3885,VALID,136,VALID,0.726004,
2007-05-14, 01:21:00,VALID,915.482,VALID,0,VALID,100,VALID,-0.0849042,VALID,21.3791,VALID,145,VALID,0.756214,
2007-05-14, 01:22:00,VALID,915.464,VALID,0,VALID,100,VALID,-0.0169808,VALID,21.3661,VALID,140,VALID,0.897892,
2007-05-14, 01:23:00,VALID,915.46,VALID,0,VALID,100,VALID,-0.0509425,VALID,21.3599,VALID,152,VALID,0.764266,
2007-05-14, 01:24:00,VALID,915.448,VALID,0,VALID,100,VALID,-0.0509425,VALID,21.3469,VALID,156,VALID,0.936047,
2007-05-14, 01:25:00,VALID,915.465,VALID,0,VALID,100,VALID,-0.0509425,VALID,21.3336,VALID,152,VALID,0.880859,
2007-05-14, 01:26:00,VALID,915.46,VALID,0,VALID,100,VALID,-0.0169808,VALID,21.3236,VALID,169,VALID,0.924733,
2007-05-14, 01:27:00,VALID,915.47,VALID,0,VALID,100,VALID,-0.0679233,VALID,21.3239,VALID,165,VALID,0.953488,
2007-05-14, 01:28:00,VALID,915.484,VALID,0,VALID,100,VALID,-0.0339617,VALID,21.3247,VALID,162,VALID,1.22507,
2007-05-14, 01:29:00,VALID,915.487,VALID,0,VALID,100,VALID,-0.0679233,VALID,21.2976,VALID,161,VALID,1.25267,
2007-05-14, 01:30:00,VALID,915.49,VALID,0,VALID,100,VALID,-0.0509425,VALID,21.2819,VALID,167,VALID,1.51908,
2007-05-14, 01:31:00,VALID,915.494,VALID,0,VALID,100,VALID,-0.0509425,VALID,21.2795,VALID,148,VALID,1.48921,
2007-05-14, 01:32:00,VALID,915.501,VALID,0,VALID,100,VALID,-0.0509425,VALID,21.2522,VALID,152,VALID,1.30959,
2007-05-14, 01:33:00,VALID,915.495,VALID,0,VALID,100,VALID,-0.0509425,VALID,21.2395,VALID,161,VALID,1.22493,
2007-05-14, 01:34:00,VALID,915.515,VALID,0,VALID,100,VALID,-0.0169808,VALID,21.2362,VALID,156,VALID,1.05747,
2007-05-14, 01:35:00,VALID,915.493,VALID,0,VALID,100,VALID,-0.0509425,VALID,21.236,VALID,158,VALID,1.30167,
2007-05-14, 01:36:00,VALID,915.481,VALID,0,VALID,100,VALID,-0.0339617,VALID,21.2327,VALID,158,VALID,1.20099,
2007-05-14, 01:37:00,VALID,915.467,VALID,0,VALID,100,VALID,-0.0679233,VALID,21.2427,VALID,158,VALID,1.22923,
2007-05-14, 01:38:00,VALID,915.448,VALID,0,VALID,100,VALID,-0.0339617,VALID,21.2492,VALID,161,VALID,1.38613,
2007-05-14, 01:39:00,VALID,915.429,VALID,0,VALID,100,VALID,-0.0509425,VALID,21.2492,VALID,155,VALID,1.14299,
2007-05-14, 01:40:00,VALID,915.413,VALID,0,VALID,100,VALID,-0.0509425,VALID,21.253,VALID,150,VALID,1.16536,
2007-05-14, 01:41:00,VALID,915.394,VALID,0,VALID,100,VALID,-0.0509425,VALID,21.246,VALID,153,VALID,1.10501,
2007-05-14, 01:42:00,VALID,915.377,VALID,0,VALID,100,VALID,-0.0509425,VALID,21.2489,VALID,150,VALID,1.30007,
2007-05-14, 01:43:00,VALID,915.385,VALID,0,VALID,100,VALID,-0.0339617,VALID,21.2525,VALID,156,VALID,1.22431,
2007-05-14, 01:44:00,VALID,915.379,VALID,0,VALID,100,VALID,-0.0169808,VALID,21.2516,VALID,153,VALID,1.02326,
2007-05-14, 01:45:00,VALID,915.376,VALID,0,VALID,100,VALID,0,VALID,21.2579,VALID,161,VALID,1.06231,
2007-05-14, 01:46:00,VALID,915.381,VALID,0,VALID,100,VALID,0,VALID,21.2641,VALID,156,VALID,1.00581,
2007-05-14, 01:47:00,VALID,915.374,VALID,0,VALID,100,VALID,-0.0169808,VALID,21.2679,VALID,161,VALID,1.26935,
2007-05-14, 01:48:00,VALID,915.371,VALID,0,VALID,100,VALID,0,VALID,21.2711,VALID,160,VALID,1.46239,
2007-05-14, 01:49:00,VALID,915.366,VALID,0,VALID,100,VALID,0,VALID,21.2909,VALID,149,VALID,1.27841,
2007-05-14, 01:50:00,VALID,915.363,VALID,0,VALID,100,VALID,0,VALID,21.2806,VALID,160,VALID,1.43731,
2007-05-14, 01:51:00,VALID,915.342,VALID,0,VALID,100,VALID,-0.0169808,VALID,21.2833,VALID,138,VALID,1.09956,
2007-05-14, 01:52:00,VALID,915.34,VALID,0,VALID,100,VALID,0.0509425,VALID,21.2863,VALID,156,VALID,0.945858,
2007-05-14, 01:53:00,VALID,915.353,VALID,0,VALID,100,VALID,0.0339617,VALID,21.2865,VALID,148,VALID,0.857465,
2007-05-14, 01:54:00,VALID,915.345,VALID,0,VALID,100,VALID,0,VALID,21.2798,VALID,142,VALID,1.01493,
2007-05-14, 01:55:00,VALID,915.352,VALID,0,VALID,100,VALID,0.0169808,VALID,21.293,VALID,143,VALID,1.1701,
2007-05-14, 01:56:00,VALID,915.349,VALID,0,VALID,100,VALID,0,VALID,21.3122,VALID,152,VALID,1.05938,
2007-05-14, 01:57:00,VALID,915.333,VALID,0,VALID,100,VALID,0.0339617,VALID,21.309,VALID,144,VALID,1.11872,
2007-05-14, 01:58:00,VALID,915.321,VALID,0,VALID,100,VALID,0.0509425,VALID,21.3155,VALID,151,VALID,1.03579,
2007-05-14, 01:59:00,VALID,915.303,VALID,0,VALID,100,VALID,-0.0169808,VALID,21.3331,VALID,152,VALID,1.09357,
2007-05-14, 02:00:00,VALID,915.289,VALID,0,VALID,100,VALID,-0.101885,VALID,21.3171,VALID,162,VALID,1.3492,
2007-05-14, 02:01:00,VALID,915.258,VALID,0,VALID,100,VALID,-0.101885,VALID,21.3106,VALID,158,VALID,1.09393,
2007-05-14, 02:02:00,VALID,915.236,VALID,0,VALID,100,VALID,-0.101885,VALID,21.3076,VALID,149,VALID,1.28961,
2007-05-14, 02:03:00,VALID,915.211,VALID,0,VALID,100,VALID,-0.0849042,VALID,21.3074,VALID,153,VALID,1.04379,
2007-05-14, 02:04:00,VALID,915.174,VALID,0,VALID,100,VALID,-0.0849042,VALID,21.3109,VALID,149,VALID,1.49047,
2007-05-14, 02:05:00,VALID,915.152,VALID,0,VALID,100,VALID,-0.0849042,VALID,21.3047,VALID,153,VALID,1.1419,
2007-05-14, 02:06:00,VALID,915.125,VALID,0,VALID,100,VALID,-0.118866,VALID,21.2817,VALID,151,VALID,0.907965,
2007-05-14, 02:07:00,VALID,915.099,VALID,0,VALID,100,VALID,-0.118866,VALID,21.2754,VALID,151,VALID,0.782738,
2007-05-14, 02:08:00,VALID,915.073,VALID,0,VALID,100,VALID,-0.101885,VALID,21.2527,VALID,131,VALID,1.3718,
2007-05-14, 02:09:00,VALID,915.084,VALID,0,VALID,100,VALID,-0.101885,VALID,21.2262,VALID,137,VALID,1.24505,
2007-05-14, 02:10:00,VALID,915.074,VALID,0,VALID,100,VALID,-0.118866,VALID,21.2265,VALID,131,VALID,1.17656,
2007-05-14, 02:11:00,VALID,915.076,VALID,0,VALID,100,VALID,-0.101885,VALID,21.2332,VALID,132,VALID,1.71403,
2007-05-14, 02:12:00,VALID,915.074,VALID,0,VALID,100,VALID,-0.118866,VALID,21.2327,VALID,135,VALID,1.71751,
2007-05-14, 02:13:00,VALID,915.081,VALID,0,VALID,100,VALID,-0.101885,VALID,21.253,VALID,135,VALID,1.28563,
2007-05-14, 02:14:00,VALID,915.088,VALID,0,VALID,100,VALID,-0.0169808,VALID,21.2511,VALID,127,VALID,1.35347,
2007-05-14, 02:15:00,VALID,915.093,VALID,0,VALID,100,VALID,0.0169808,VALID,21.2516,VALID,142,VALID,1.39961,
2007-05-14, 02:16:00,VALID,915.086,VALID,0,VALID,100,VALID,-0.0169808,VALID,21.2343,VALID,138,VALID,1.26376,
2007-05-14, 02:17:00,VALID,915.07,VALID,0,VALID,100,VALID,0.0169808,VALID,21.2351,VALID,126,VALID,1.25127,
2007-05-14, 02:18:00,VALID,915.044,VALID,0,VALID,100,VALID,0,VALID,21.2254,VALID,114,VALID,1.22899,
2007-05-14, 02:19:00,VALID,915.017,VALID,0,VALID,100,VALID,0,VALID,21.2089,VALID,131,VALID,1.26524,
2007-05-14, 02:20:00,VALID,915.008,VALID,0,VALID,100,VALID,-0.0169808,VALID,21.1959,VALID,132,VALID,0.908558,
2007-05-14, 02:21:00,VALID,914.977,VALID,0,VALID,100,VALID,0,VALID,21.1965,VALID,135,VALID,1.42351,
2007-05-14, 02:22:00,VALID,914.992,VALID,0,VALID,100,VALID,0,VALID,21.1859,VALID,110,VALID,0.916726,
2007-05-14, 02:23:00,VALID,914.983,VALID,0,VALID,100,VALID,0,VALID,21.1824,VALID,115,VALID,1.24159,
2007-05-14, 02:24:00,VALID,914.968,VALID,0,VALID,100,VALID,-0.0339617,VALID,21.1835,VALID,128,VALID,1.21895,
2007-05-14, 02:25:00,VALID,914.96,VALID,0,VALID,100,VALID,-0.0169808,VALID,21.1802,VALID,133,VALID,1.3434,
2007-05-14, 02:26:00,VALID,914.952,VALID,0,VALID,100,VALID,-0.0339617,VALID,21.1708,VALID,143,VALID,1.3315,
2007-05-14, 02:27:00,VALID,914.959,VALID,0,VALID,100,VALID,0,VALID,21.1675,VALID,142,VALID,1.12891,
2007-05-14, 02:28:00,VALID,914.955,VALID,0,VALID,100,VALID,-0.0339617,VALID,21.1578,VALID,150,VALID,1.19004,
2007-05-14, 02:29:00,VALID,914.971,VALID,0,VALID,100,VALID,-0.0169808,VALID,21.1443,VALID,153,VALID,0.783798,
2007-05-14, 02:30:00,VALID,914.967,VALID,0,VALID,100,VALID,0,VALID,21.1372,VALID,140,VALID,1.06479,
2007-05-14, 02:31:00,VALID,914.979,VALID,0,VALID,100,VALID,-0.0169808,VALID,21.1448,VALID,158,VALID,0.470152,
2007-05-14, 02:32:00,VALID,914.992,VALID,0,VALID,100,VALID,-0.0339617,VALID,21.1413,VALID,145,VALID,0.855632,
2007-05-14, 02:33:00,VALID,915.016,VALID,0,VALID,100,VALID,-0.0339617,VALID,21.1248,VALID,142,VALID,0.738735,
2007-05-14, 02:34:00,VALID,915.025,VALID,0,VALID,100,VALID,0,VALID,21.1315,VALID,155,VALID,0.438802,
2007-05-14, 02:35:00,VALID,915.029,VALID,0,VALID,100,VALID,0,VALID,21.1318,VALID,154,VALID,0.310742,
2007-05-14, 02:36:00,VALID,915.017,VALID,0,VALID,100,VALID,-0.0169808,VALID,21.1215,VALID,153,VALID,0.800781,
2007-05-14, 02:37:00,VALID,915.006,VALID,0,VALID,100,VALID,-0.0339617,VALID,21.1248,VALID,143,VALID,0.493118,
2007-05-14, 02:38:00,VALID,914.997,VALID,0,VALID,100,VALID,-0.0169808,VALID,21.1048,VALID,140,VALID,0.673921,
2007-05-14, 02:39:00,VALID,915.003,VALID,0,VALID,100,VALID,-0.0169808,VALID,21.1053,VALID,136,VALID,0.520275,
2007-05-14, 02:40:00,VALID,915.022,VALID,0,VALID,100,VALID,-0.0169808,VALID,21.0985,VALID,133,VALID,0.340843,
2007-05-14, 02:41:00,VALID,915.045,VALID,0,VALID,100,VALID,0.0169808,VALID,21.0853,VALID,132,VALID,0.3391,
2007-05-14, 02:42:00,VALID,915.069,VALID,0,VALID,100,VALID,0,VALID,21.0783,VALID,132,VALID,0.109375,
2007-05-14, 02:43:00,VALID,915.077,VALID,0,VALID,100,VALID,0.0339617,VALID,21.0921,VALID,150,VALID,0.49721,
2007-05-14, 02:44:00,VALID,915.083,VALID,0,VALID,100,VALID,-0.0339617,VALID,21.0961,VALID,169,VALID,0.771577,
2007-05-14, 02:45:00,VALID,915.071,VALID,0,VALID,100,VALID,-0.0339617,VALID,21.1091,VALID,154,VALID,0.528011,
2007-05-14, 02:46:00,VALID,915.056,VALID,0,VALID,100,VALID,-0.0509425,VALID,21.1286,VALID,145,VALID,0.544922,
2007-05-14, 02:47:00,VALID,915.055,VALID,0,VALID,100,VALID,-0.0169808,VALID,21.135,VALID,139,VALID,0.465554,
2007-05-14, 02:48:00,VALID,915.054,VALID,0,VALID,100,VALID,-0.0169808,VALID,21.1383,VALID,144,VALID,0.612165,
2007-05-14, 02:49:00,VALID,915.069,VALID,0,VALID,100,VALID,-0.0339617,VALID,21.118,VALID,140,VALID,0.370739,
2007-05-14, 02:50:00,VALID,915.075,VALID,0,VALID,100,VALID,0,VALID,21.118,VALID,134,VALID,0.40532,
2007-05-14, 02:51:00,VALID,915.082,VALID,0,VALID,100,VALID,0,VALID,21.1115,VALID,127,VALID,0.507626,
2007-05-14, 02:52:00,VALID,915.088,VALID,0,VALID,100,VALID,-0.0339617,VALID,21.115,VALID,134,VALID,0.376715,
2007-05-14, 02:53:00,VALID,915.103,VALID,0,VALID,100,VALID,-0.0679233,VALID,21.1221,VALID,128,VALID,0.614099,
2007-05-14, 02:54:00,VALID,915.113,VALID,0,VALID,100,VALID,-0.0339617,VALID,21.1248,VALID,127,VALID,0.113961,
2007-05-14, 02:55:00,VALID,915.118,VALID,0,VALID,100,VALID,-0.0169808,VALID,21.1443,VALID,127,VALID,0.0745046,
2007-05-14, 02:56:00,VALID,915.131,VALID,0,VALID,100,VALID,-0.0679233,VALID,21.1483,VALID,127,VALID,0.245821,
2007-05-14, 02:57:00,VALID,915.142,VALID,0,VALID,100,VALID,-0.0339617,VALID,21.151,VALID,129,VALID,0.336338,
2007-05-14, 02:58:00,VALID,915.151,VALID,0,VALID,100,VALID,-0.0339617,VALID,21.1475,VALID,123,VALID,0.303961,
2007-05-14, 02:59:00,VALID,915.153,VALID,0,VALID,100,VALID,-0.0339617,VALID,21.1737,VALID,123,VALID,0.0025436,
2007-05-14, 03:00:00,VALID,915.162,VALID,0,VALID,100,VALID,0,VALID,21.1602,VALID,123,VALID,0.00852273,
2007-05-14, 03:01:00,VALID,915.175,VALID,0,VALID,100,VALID,-0.0169808,VALID,21.1667,VALID,123,VALID,0,
2007-05-14, 03:02:00,VALID,915.178,VALID,0,VALID,100,VALID,0,VALID,21.17,VALID,123,VALID,0,
2007-05-14, 03:03:00,VALID,915.18,VALID,0,VALID,100,VALID,-0.0339617,VALID,21.1837,VALID,123,VALID,0,
2007-05-14, 03:04:00,VALID,915.188,VALID,0,VALID,100,VALID,0,VALID,21.1794,VALID,123,VALID,0,
2007-05-14, 03:05:00,VALID,915.199,VALID,0,VALID,100,VALID,0,VALID,21.1737,VALID,123,VALID,0.0874256,
2007-05-14, 03:06:00,VALID,915.196,VALID,0,VALID,100,VALID,-0.0169808,VALID,21.1635,VALID,123,VALID,0.00872093,
2007-05-14, 03:07:00,VALID,915.186,VALID,0,VALID,100,VALID,-0.0169808,VALID,21.1605,VALID,81,VALID,0.205078,
2007-05-14, 03:08:00,VALID,915.17,VALID,0,VALID,100,VALID,0,VALID,21.1445,VALID,350,VALID,0.0708841,
2007-05-14, 03:09:00,VALID,915.151,VALID,0,VALID,100,VALID,0,VALID,21.1348,VALID,350,VALID,0.218936,
2007-05-14, 03:10:00,VALID,915.138,VALID,0,VALID,100,VALID,0,VALID,21.0948,VALID,350,VALID,0.179861,
2007-05-14, 03:11:00,VALID,915.14,VALID,0,VALID,100,VALID,0,VALID,21.0785,VALID,350,VALID,0.191679,
2007-05-14, 03:12:00,VALID,915.151,VALID,0,VALID,100,VALID,0,VALID,21.0761,VALID,351,VALID,0.195313,
2007-05-14, 03:13:00,VALID,915.141,VALID,0,VALID,100,VALID,0,VALID,21.0563,VALID,352,VALID,0.0666921,
2007-05-14, 03:14:00,VALID,915.132,VALID,0,VALID,100,VALID,-0.0339617,VALID,21.0501,VALID,352,VALID,0.00688244,
2007-05-14, 03:15:00,VALID,915.137,VALID,0,VALID,100,VALID,-0.0169808,VALID,21.0534,VALID,352,VALID,0.0623183,
2007-05-14, 03:16:00,VALID,915.136,VALID,0,VALID,100,VALID,0,VALID,21.0334,VALID,352,VALID,0,
2007-05-14, 03:17:00,VALID,915.15,VALID,0,VALID,100,VALID,-0.0169808,VALID,21.0239,VALID,352,VALID,0.0855469,
2007-05-14, 03:18:00,VALID,915.16,VALID,0,VALID,100,VALID,-0.0169808,VALID,21.0087,VALID,352,VALID,0.25651,
2007-05-14, 03:19:00,VALID,915.163,VALID,0,VALID,100,VALID,0,VALID,20.9884,VALID,352,VALID,0.214748,
2007-05-14, 03:20:00,VALID,915.165,VALID,0,VALID,100,VALID,0,VALID,20.9657,VALID,352,VALID,0.294331,
2007-05-14, 03:21:00,VALID,915.169,VALID,0,VALID,100,VALID,-0.0169808,VALID,20.9362,VALID,352,VALID,0.094122,
2007-05-14, 03:22:00,VALID,915.157,VALID,0,VALID,100,VALID,0,VALID,20.9468,VALID,352,VALID,0,
2007-05-14, 03:23:00,VALID,915.152,VALID,0,VALID,100,VALID,-0.0169808,VALID,20.9398,VALID,352,VALID,0,
2007-05-14, 03:24:00,VALID,915.135,VALID,0,VALID,100,VALID,-0.0169808,VALID,20.94,VALID,352,VALID,0,
2007-05-14, 03:25:00,VALID,915.127,VALID,0,VALID,100,VALID,-0.0339617,VALID,20.9557,VALID,352,VALID,0.0533537,
2007-05-14, 03:26:00,VALID,915.134,VALID,0,VALID,100,VALID,-0.0169808,VALID,20.966,VALID,352,VALID,0.363459,
2007-05-14, 03:27:00,VALID,915.13,VALID,0,VALID,100,VALID,-0.0169808,VALID,20.9565,VALID,352,VALID,0.333576,
2007-05-14, 03:28:00,VALID,915.15,VALID,0,VALID,100,VALID,-0.0169808,VALID,20.9205,VALID,352,VALID,0.332422,
2007-05-14, 03:29:00,VALID,915.165,VALID,0,VALID,100,VALID,-0.0849042,VALID,20.9048,VALID,19,VALID,0.524325,
2007-05-14, 03:30:00,VALID,915.189,VALID,0,VALID,100,VALID,-0.0849042,VALID,20.8948,VALID,20,VALID,0.354759,
2007-05-14, 03:31:00,VALID,915.192,VALID,0,VALID,100,VALID,-0.0509425,VALID,20.8913,VALID,41,VALID,0.411086,
2007-05-14, 03:32:00,VALID,915.217,VALID,0,VALID,100,VALID,-0.0339617,VALID,20.9005,VALID,46,VALID,0.163881,
2007-05-14, 03:33:00,VALID,915.223,VALID,0,VALID,100,VALID,-0.0339617,VALID,20.8908,VALID,46,VALID,0.333147,
2007-05-14, 03:34:00,VALID,915.211,VALID,0,VALID,100,VALID,-0.0169808,VALID,20.8976,VALID,46,VALID,0.288318,
2007-05-14, 03:35:00,VALID,915.218,VALID,0,VALID,100,VALID,0,VALID,20.8873,VALID,56,VALID,0.490327,
2007-05-14, 03:36:00,VALID,915.224,VALID,0,VALID,100,VALID,-0.0339617,VALID,20.8938,VALID,64,VALID,0.466082,
2007-05-14, 03:37:00,VALID,915.221,VALID,0,VALID,100,VALID,-0.0339617,VALID,20.9135,VALID,78,VALID,0.53487,
2007-05-14, 03:38:00,VALID,915.225,VALID,0,VALID,100,VALID,0.0169808,VALID,20.9168,VALID,115,VALID,0.572976,
2007-05-14, 03:39:00,VALID,915.231,VALID,0,VALID,100,VALID,-0.0169808,VALID,20.933,VALID,116,VALID,0.231076,